Content
SEND FEEDBACK

Daily
Averages
Monthly
Summary
Turkey

CEYHAN, TURKEY


Home > Middle East > Turkey
Elevation: 98 feet     Latitude: 37 00N     Longitude: 035 48E

WEATHER
 
SELECT A DAY
Number of Records: 176,213;   Date Range: 7/1/96 - 7/26/14
 
SHARE

PRINT THIS DATA

[ ← Previous Day ]
WEATHER ALMANAC - FEBRUARY 25, 2013
[ Next Day → ]
[ °C ]   °F
Weather ElementAverageHighLow
Temperature56.4 °F71.6 °F (3:50 pm)44.6 °F (2:50 am)
Dewpoint47.5 °F55.4 °F (8:50 am)39.2 °F (3:50 pm)
Humidity76.5 %100 % (12:50 am)31 % (3:50 pm)
Barometer30.25 in30.31 in (8:00 am)30.18 in (9:50 pm)
Wind Speed3.5 mph6.9 mph (6:50 pm)
Weather ElementAverage
Visibility6 mi
Wind DirectionSE (133.3 °)

Weather ElementTotal
Precipitation---
Heating Degree Days6.9 (Base 65)
Growing Degree Days8.1 (Base 50)
Averaged from 51 records on February 25, 2013
WEATHER CONDITIONS BREAKOUT
WIND DIRECTION BREAKOUT
WEATHER BY HOUR - FEBRUARY 25, 2013
[ °C ]   °F
Local TimeTemperatureDewpointHumidityBarometerVisibilityWind DirectionWind SpeedGust SpeedPrecipitationEventsConditions
12:50 AM46.4 °F46.4 °F100 %30.30 inNorth (10°)5.8 mphClear
1:20 AM46.4 °F46.4 °F100 %30.30 inNE (40°)4.6 mphClear
1:50 AM46.4 °F46.4 °F100 %30.30 inNorth (10°)3.5 mphClear
2:00 AM47.0 °F46.0 °F95 %30.30 in6.0 miNorth (10°)3.5 mph
2:20 AM46.4 °F46.4 °F100 %30.27 inNorth (360°)2.3 mphClear
2:50 AM44.6 °F44.6 °F100 %30.27 inNNE (30°)4.6 mphClear
3:20 AM46.4 °F44.6 °F93 %30.27 inNorth (10°)2.3 mphClear
3:50 AM46.4 °F44.6 °F93 %30.27 inNNE (30°)2.3 mphClear
4:20 AM46.4 °F44.6 °F93 %30.27 inNNW (340°)2.3 mphClear
4:50 AM46.4 °F44.6 °F93 %30.27 inNNW (340°)2.3 mphClear
5:20 AM46.4 °F44.6 °F93 %30.27 inNorth (350°)2.3 mphClear
5:50 AM46.4 °F46.4 °F100 %30.27 inNorth (360°)2.3 mphClear
6:20 AM44.6 °F44.6 °F100 %30.27 inNNW (340°)3.5 mphClear
6:50 AM46.4 °F46.4 °F100 %30.27 inENE (70°)2.3 mphClear
7:20 AM48.2 °F48.2 °F100 %30.30 inWest (270°)2.3 mphClear
7:50 AM50.0 °F50.0 °F100 %30.30 inNW (320°)2.3 mphClear
8:00 AM50.0 °F50.0 °F99 %30.31 in6.0 miNW (320°)2.3 mphClear
8:20 AM53.6 °F51.8 °F94 %30.30 inNorth (350°)4.6 mphClear
8:50 AM57.2 °F55.4 °F94 %30.30 inNorth (10°)3.5 mphClear
9:20 AM59.0 °F51.8 °F77 %30.30 inNE (40°)5.8 mphClear
9:50 AM60.8 °F50.0 °F68 %30.30 inNE (50°)5.8 mphClear
10:20 AM62.6 °F50.0 °F63 %30.27 inNE (40°)3.5 mphClear
10:50 AM64.4 °F51.8 °F64 %30.27 inNorth (360°)5.8 mphClear
11:20 AM64.4 °F48.2 °F56 %30.27 inNNE (30°)4.6 mphClear
11:50 AM66.2 °F48.2 °F52 %30.27 inCalmClear
12:20 PM66.2 °F48.2 °F52 %30.27 inNE (40°)4.6 mphClear
12:50 PM68.0 °F50.0 °F52 %30.24 inNNE (30°)3.5 mphClear
1:20 PM68.0 °F48.2 °F49 %30.24 inNorth (350°)3.5 mphClear
1:50 PM69.8 °F46.4 °F43 %30.24 inNNE (20°)3.5 mphClear
2:00 PM69.0 °F46.0 °F33 %30.24 in6.0 miNNE (20°)3.5 mphClear
2:20 PM69.8 °F46.4 °F43 %30.21 inNorth (10°)3.5 mphClear
2:50 PM69.8 °F46.4 °F43 %30.21 inWNW (300°)3.5 mphClear
3:20 PM69.8 °F44.6 °F40 %30.21 inEast (90°)4.6 mphClear
3:50 PM71.6 °F39.2 °F31 %30.21 inESE (120°)3.5 mphClear
4:20 PM69.8 °F42.8 °F38 %30.21 inCalmClear
4:50 PM69.8 °F41.0 °F35 %30.21 inEast (90°)2.3 mphClear
5:20 PM66.2 °F44.6 °F46 %30.21 inESE (110°)2.3 mphClear
5:50 PM66.2 °F44.6 °F46 %30.21 inSE (140°)2.3 mphClear
6:20 PM59.0 °F48.2 °F67 %30.21 inNE (40°)3.5 mphClear
6:50 PM55.4 °F51.8 °F88 %30.21 inNE (50°)6.9 mphClear
7:20 PM55.4 °F51.8 °F88 %30.21 inNE (40°)4.6 mphClear
7:50 PM53.6 °F51.8 °F94 %30.21 inNNE (30°)4.6 mphClear
8:00 PM54.0 °F51.0 °F86 %30.21 in6.0 miNNE (30°)4.6 mphClear
8:20 PM53.6 °F50.0 °F88 %30.21 inNNE (30°)4.6 mphClear
8:50 PM53.6 °F50.0 °F88 %30.21 inNorth (360°)3.5 mphClear
9:20 PM53.6 °F50.0 °F88 %30.21 inNE (50°)2.3 mphClear
9:50 PM51.8 °F48.2 °F88 %30.18 inNNE (30°)4.6 mphClear
10:20 PM51.8 °F48.2 °F88 %30.18 inNNE (20°)4.6 mphClear
10:50 PM51.8 °F48.2 °F88 %30.18 inNorth (10°)3.5 mphClear
11:20 PM51.8 °F48.2 °F88 %30.18 inNNW (340°)4.6 mphClear
11:50 PM51.8 °F46.4 °F82 %30.18 inNorth (360°)2.3 mphClear
Hourly data recorded from LTAG, located miles away from Ceyhan, Turkey







STORIES FROM OUR PARTNERS